HS5BOG-13 Weather Reports


Display with metric or nautical units.
time (UTC)temp
F
wind
direction
speed
MPH
gust
MPH
rain 1hr
in
rain 24hr
in
rain mn
in
humidity
%
barometer
mb
20260508015203 86 0.0 0.0 0.00 0.00 0.00 69 993.9
20260508014158 86 0.0 0.0 0.00 0.00 0.00 69 993.8
20260508013152 86 0.0 0.0 0.00 0.00 0.00 69 993.9
20260508012147 85 0.0 0.0 0.00 0.00 0.00 71 993.6
20260508011141 85 0.0 0.0 0.00 0.00 0.00 73 993.5
20260508010136 85 0.0 0.0 0.00 0.00 0.00 73 993.5
20260508005130 85 0.0 0.0 0.00 0.00 0.00 72 993.4
20260508004124 85 0.0 0.0 0.00 0.00 0.00 71 993.5
20260508003119 85 0.0 0.0 0.00 0.00 0.00 71 993.5
20260508002113 85 0.0 0.0 0.00 0.00 0.00 71 993.5
20260508001108 84 0.0 0.0 0.00 0.00 0.00 72 993.4
20260507235056 85 0.0 0.0 0.00 0.00 0.00 72 993.4
20260507234051 85 0.0 0.0 0.00 0.00 0.00 71 993.2
20260507233045 85 0.0 0.0 0.00 0.00 0.00 71 993.0
20260507232040 85 0.0 0.0 0.00 0.00 0.00 71 993.0
20260507231034 85 0.0 0.0 0.00 0.00 0.00 71 992.9
20260507230029 86 0.0 0.0 0.00 0.00 0.00 72 992.7
20260507225023 85 0.0 0.0 0.00 0.00 0.00 72 992.6
20260507224017 85 0.0 0.0 0.00 0.00 0.00 74 992.6
20260507223012 85 0.0 0.0 0.00 0.00 0.00 75 992.4
20260507222006 85 0.0 0.0 0.00 0.00 0.00 79 992.1
20260507221001 85 0.0 0.0 0.00 0.00 0.00 81 991.9
20260507215955 85 0.0 0.0 0.00 0.00 0.00 81 991.6
20260507214929 85 0.0 0.0 0.00 0.00 0.00 80 991.5
20260507213924 85 0.0 0.0 0.00 0.00 0.00 80 991.4
20260507212918 85 0.0 0.0 0.00 0.00 0.00 80 991.3
20260507211742 85 0.0 0.0 0.00 0.00 0.00 77 991.2
20260507210736 85 0.0 0.0 0.00 0.00 0.00 76 991.0
20260507205731 85 0.0 0.0 0.00 0.00 0.00 75 991.0
20260507204725 86 0.0 0.0 0.00 0.00 0.00 72 990.9
20260507203719 86 0.0 0.0 0.00 0.00 0.00 74 990.9
20260507202714 86 0.0 0.0 0.00 0.00 0.00 71 991.0
20260507201708 86 0.0 0.0 0.00 0.00 0.00 72 990.9
20260507200703 86 0.0 0.0 0.00 0.00 0.00 70 990.8
20260507195657 86 0.0 0.0 0.00 0.00 0.00 68 990.8
20260507194652 86 0.0 0.0 0.00 0.00 0.00 67 990.9
20260507193646 86 0.0 0.0 0.00 0.00 0.00 67 990.9
20260507192640 86 0.0 0.0 0.00 0.00 0.00 66 991.2
20260507191635 86 0.0 0.0 0.00 0.00 0.00 67 991.0
20260507190629 86 0.0 0.0 0.00 0.00 0.00 66 990.9
20260507185624 87 0.0 0.0 0.00 0.00 0.00 67 991.0
20260507184618 87 0.0 0.0 0.00 0.00 0.00 66 991.1
20260507183613 87 0.0 0.0 0.00 0.00 0.00 67 991.3
20260507182607 87 0.0 0.0 0.00 0.00 0.00 68 991.3
20260507181602 87 0.0 0.0 0.00 0.00 0.00 68 991.6
20260507180558 87 0.0 0.0 0.00 0.00 0.00 68 991.6
20260507175550 87 0.0 0.0 0.00 0.00 0.00 68 991.5
20260507174545 87 0.0 0.0 0.00 0.00 0.00 68 991.7
20260507173539 87 0.0 0.0 0.00 0.00 0.00 66 991.8
20260507172533 87 0.0 0.0 0.00 0.00 0.00 66 991.8
20260507171527 87 0.0 0.0 0.00 0.00 0.00 65 992.0
20260507170521 87 0.0 0.0 0.00 0.00 0.00 65 992.1
20260507165516 87 0.0 0.0 0.00 0.00 0.00 64 992.2
20260507164510 87 0.0 0.0 0.00 0.00 0.00 64 992.2
20260507163505 87 0.0 0.0 0.00 0.00 0.00 65 992.1
20260507162459 88 0.0 0.0 0.00 0.00 0.00 64 992.1
20260507161454 88 0.0 0.0 0.00 0.00 0.00 64 992.1
20260507160446 87 0.0 0.0 0.00 0.00 0.00 63 991.9
20260507155441 88 0.0 0.0 0.00 0.00 0.00 65 991.7
20260507154435 88 0.0 0.0 0.00 0.00 0.00 66 991.7
20260507153430 88 0.0 0.0 0.00 0.00 0.00 65 991.4
20260507152424 88 0.0 0.0 0.00 0.00 0.00 65 991.1
20260507151419 88 0.0 0.0 0.00 0.00 0.00 64 991.1
20260507150413 88 0.0 0.0 0.00 0.00 0.00 64 991.0
20260507145407 88 0.0 0.0 0.00 0.00 0.00 65 990.9
20260507144402 88 0.0 0.0 0.00 0.00 0.00 64 990.9
20260507143356 89 0.0 0.0 0.00 0.00 0.00 64 990.8
20260507142351 89 0.0 0.0 0.00 0.00 0.00 64 990.8
20260507141345 89 0.0 0.0 0.00 0.00 0.00 64 990.8
20260507140339 89 0.0 0.0 0.00 0.00 0.00 63 990.6
20260507135334 89 0.0 0.0 0.00 0.00 0.00 63 990.5
20260507134328 89 0.0 0.0 0.00 0.00 0.00 62 990.6
20260507133323 89 0.0 0.0 0.00 0.00 0.00 63 990.5
20260507132317 89 0.0 0.0 0.00 0.00 0.00 62 990.5
20260507131312 89 0.0 0.0 0.00 0.00 0.00 62 990.3
20260507130306 89 0.0 0.0 0.00 0.00 0.00 63 990.2
20260507125300 89 0.0 0.0 0.00 0.00 0.00 63 990.2
20260507124255 89 0.0 0.0 0.00 0.00 0.00 63 989.7
20260507123249 90 0.0 0.0 0.00 0.00 0.00 62 989.7
20260507122153 90 0.0 0.0 0.00 0.00 0.00 63 989.3
20260507121148 90 0.0 0.0 0.00 0.00 0.00 63 989.0
20260507120142 90 0.0 0.0 0.00 0.00 0.00 64 988.5
20260507115137 90 0.0 0.0 0.00 0.00 0.00 63 988.6
20260507114131 90 0.0 0.0 0.00 0.00 0.00 62 988.2
20260507113125 90 0.0 0.0 0.00 0.00 0.00 64 987.9
20260507112120 90 0.0 0.0 0.00 0.00 0.00 65 987.7
20260507111114 90 0.0 0.0 0.00 0.00 0.00 65 987.5
20260507110109 91 0.0 0.0 0.00 0.00 0.00 66 987.3
20260507105103 91 0.0 0.0 0.00 0.00 0.00 66 987.2
20260507104057 91 0.0 0.0 0.00 0.00 0.00 66 987.2
20260507103052 91 0.0 0.0 0.00 0.00 0.00 66 987.3
20260507102046 91 0.0 0.0 0.00 0.00 0.00 65 987.5
20260507101040 91 0.0 0.0 0.00 0.00 0.00 64 987.6
20260507100035 91 0.0 0.0 0.00 0.00 0.00 64 987.7
20260507095029 91 0.0 0.0 0.00 0.00 0.00 63 987.8
20260507094023 91 0.0 0.0 0.00 0.00 0.00 64 987.5
20260507093018 91 0.0 0.0 0.00 0.00 0.00 64 987.4
20260507092012 91 0.0 0.0 0.00 0.00 0.00 64 987.3
20260507091007 90 0.0 0.0 0.00 0.00 0.00 65 986.9
20260507090001 91 0.0 0.0 0.00 0.00 0.00 65 987.0
20260507084955 90 0.0 0.0 0.00 0.00 0.00 62 987.3
20260507083950 90 0.0 0.0 0.00 0.00 0.00 62 987.3
20260507082944 90 0.0 0.0 0.00 0.00 0.00 62 987.2
20260507081938 90 0.0 0.0 0.00 0.00 0.00 63 987.3
20260507080933 89 0.0 0.0 0.00 0.00 0.00 64 987.5
20260507075927 89 0.0 0.0 0.00 0.00 0.00 65 987.8
20260507074922 89 0.0 0.0 0.00 0.00 0.00 64 988.0
20260507073916 89 0.0 0.0 0.00 0.00 0.00 62 988.0
20260507072911 90 0.0 0.0 0.00 0.00 0.00 66 988.2
20260507071905 89 0.0 0.0 0.00 0.00 0.00 64 988.2
20260507070859 89 0.0 0.0 0.00 0.00 0.00 65 988.5
20260507065854 89 0.0 0.0 0.00 0.00 0.00 68 988.7
20260507064848 90 0.0 0.0 0.00 0.00 0.00 69 988.9
20260507063843 90 0.0 0.0 0.00 0.00 0.00 66 989.4
20260507062837 90 0.0 0.0 0.00 0.00 0.00 57 989.3
20260507061831 90 0.0 0.0 0.00 0.00 0.00 57 989.6
20260507060826 91 0.0 0.0 0.00 0.00 0.00 54 989.8
20260507055820 90 0.0 0.0 0.00 0.00 0.00 64 990.1
20260507054815 89 0.0 0.0 0.00 0.00 0.00 66 990.0
20260507053809 89 0.0 0.0 0.00 0.00 0.00 65 990.1
20260507052804 89 0.0 0.0 0.00 0.00 0.00 62 990.3
20260507051758 90 0.0 0.0 0.00 0.00 0.00 66 990.3
20260507050752 89 0.0 0.0 0.00 0.00 0.00 68 990.5
20260507045746 89 0.0 0.0 0.00 0.00 0.00 67 990.7
20260507044741 89 0.0 0.0 0.00 0.00 0.00 65 990.7
20260507043735 89 0.0 0.0 0.00 0.00 0.00 67 991.0
20260507042730 89 0.0 0.0 0.00 0.00 0.00 69 991.2
20260507041724 88 0.0 0.0 0.00 0.00 0.00 71 991.5
20260507040719 88 0.0 0.0 0.00 0.00 0.00 71 991.4
20260507035713 88 0.0 0.0 0.00 0.00 0.00 71 991.6
20260507034707 88 0.0 0.0 0.00 0.00 0.00 74 991.6
20260507033702 87 0.0 0.0 0.00 0.00 0.00 73 991.7
20260507032656 87 0.0 0.0 0.00 0.00 0.00 75 991.7
20260507031651 87 0.0 0.0 0.00 0.00 0.00 76 991.9
20260507030645 87 0.0 0.0 0.00 0.00 0.00 76 991.9
20260507025639 87 0.0 0.0 0.00 0.00 0.00 78 992.0
20260507024634 87 0.0 0.0 0.00 0.00 0.00 79 992.1
20260507023628 87 0.0 0.0 0.00 0.00 0.00 79 992.3
20260507022623 86 0.0 0.0 0.00 0.00 0.00 80 992.4
20260507021617 86 0.0 0.0 0.00 0.00 0.00 79 992.4
20260507020611 85 0.0 0.0 0.00 0.00 0.00 83 992.4